Athens, GA

2:55 PM EST on February 08, 2016 (GMT -0500)
Athens / Epps

Weather History for KAHN - June, 2013

Change the Weather History Date:

Tuesday, June 18, 2013

  Actual Average Record
Temperature  
Mean Temperature 76 °F 78 °F  
Max Temperature 83 °F 89 °F 100 °F (1933)
Min Temperature 68 °F 67 °F 54 °F (1974)
Cooling Degree Days 11 13  
Month to date cooling degree days 214 207  
Year to date cooling degree days 393 447  
Since 1 June cooling degree days 214 207  
Growing Degree Days 25 (Base 50)    
Moisture  
Dew Point 70 °F    
Average Humidity 85    
Maximum Humidity 100    
Minimum Humidity 69    
Precipitation  
Precipitation 0.97 in 0.15 in 2.33 in (2005)
Month to date precipitation 7.72 2.40  
Year to date precipitation 30.80 21.51  
Sea Level Pressure  
Sea Level Pressure 29.91 in    
Wind  
Wind Speed 5 mph (WSW)    
Max Wind Speed 20 mph    
Max Gust Speed 33 mph    
Visibility 5 miles    
Events Fog , Rain , Thunderstorm    
T = Trace of Precipitation, MM = Missing Value Source: NWS Daily Summary

Daily Weather History Graph

Daily Weather History Graph

Search for Another Location

Airport or City:

Trip Planner

Search our weather history database for the weather conditions in past years. The results will help you decide how hot, cold, wet, or windy it might be!

Date:

Astronomy

Jun. 18, 2013 Rise Set
Actual Time 6:22 AM EDT 8:47 PM EDT
Civil Twilight 5:52 AM EDT 9:16 PM EDT
Nautical Twilight 5:16 AM EDT 9:52 PM EDT
Astronomical Twilight 4:37 AM EDT 10:31 PM EDT
Moon 3:40 PM EDT (6/18) 2:17 AM EDT (6/18)
Length of Visible Light 15h 23m
Length of Day
14h 24m
Waxing Gibbous, 70% of the Moon is Illuminated
Jun 18
Waxing Gibbous
Jun 23
Full
Jun 30
Last Quarter
Jul 8
New
Jul 15
First Quarter

Hourly Weather History & Observations

Time (EDT) Temp. Heat Index Dew Point Humidity Pressure Visibility Wind Dir Wind Speed Gust Speed Precip Events Conditions
12:51 AM 71.1 °F - 69.1 °F 93% - 6.0 mi Calm Calm - 0.00 in Rain Light Rain
1:51 AM 70.0 °F - 69.1 °F 97% - 5.0 mi Variable 3.5 mph - 0.00 in   Mostly Cloudy
2:51 AM 70.0 °F - 69.1 °F 97% - 6.0 mi SW 3.5 mph - N/A   Overcast
3:51 AM 69.1 °F - 68.0 °F 96% - 6.0 mi WSW 4.6 mph - N/A   Overcast
4:51 AM 68.0 °F - 66.9 °F 96% - 5.0 mi Calm Calm - N/A   Mostly Cloudy
5:10 AM 69.8 °F - 68.0 °F 94% - 6.0 mi Calm Calm - N/A   Mostly Cloudy
5:51 AM 68.0 °F - 66.9 °F 96% - 5.0 mi Calm Calm - N/A   Mostly Cloudy
6:51 AM 68.0 °F - 66.9 °F 96% 29.94 in 3.0 mi Calm Calm - N/A   Partly Cloudy
7:21 AM 69.8 °F - 66.2 °F 88% 29.96 in 4.0 mi Variable 3.5 mph - N/A   Mostly Cloudy
7:51 AM 69.1 °F - 66.9 °F 93% 29.97 in 4.0 mi SSW 6.9 mph - 0.00 in Rain , Thunderstorm Light Thunderstorms and Rain
7:56 AM 69.8 °F - 66.2 °F 88% 29.98 in 2.5 mi SW 8.1 mph - 0.00 in Rain , Thunderstorm Thunderstorms and Rain
8:10 AM 69.8 °F - 66.2 °F 88% 29.97 in 2.5 mi SW 4.6 mph - 0.03 in Rain , Thunderstorm Rain
8:23 AM 69.8 °F - 66.2 °F 88% 29.96 in 2.5 mi SSW 4.6 mph - 0.07 in Rain , Thunderstorm Light Rain
8:30 AM 69.8 °F - 66.2 °F 88% 29.96 in 5.0 mi South 5.8 mph - 0.07 in Rain , Thunderstorm Light Rain
8:44 AM 69.8 °F - 66.2 °F 88% 29.96 in 10.0 mi SW 4.6 mph - 0.07 in   Mostly Cloudy
8:51 AM 70.0 °F - 66.9 °F 90% 29.95 in 10.0 mi WSW 3.5 mph - 0.07 in   Scattered Clouds
9:40 AM 71.6 °F - 69.8 °F 94% 29.98 in 9.0 mi Calm Calm - N/A   Mostly Cloudy
9:51 AM 70.0 °F - 69.1 °F 97% 29.97 in 7.0 mi WSW 5.8 mph - N/A   Overcast
10:09 AM 69.8 °F - 69.8 °F 100% 29.98 in 8.0 mi WSW 3.5 mph - 0.00 in Rain Light Rain
10:41 AM 73.4 °F - 71.6 °F 94% 29.94 in 6.0 mi Variable 5.8 mph - 0.00 in Rain Light Rain
10:51 AM 73.0 °F - 71.1 °F 93% 29.92 in 7.0 mi SW 6.9 mph - 0.00 in Rain Light Rain
11:34 AM 75.2 °F - 71.6 °F 89% 29.96 in 8.0 mi WSW 9.2 mph - 0.01 in   Mostly Cloudy
11:51 AM 78.1 °F - 72.0 °F 81% 29.93 in 8.0 mi SW 9.2 mph 16.1 mph 0.01 in   Overcast
12:06 PM 78.8 °F - 71.6 °F 78% 29.95 in 8.0 mi WSW 8.1 mph - N/A   Overcast
12:51 PM 81.0 °F 85.2 °F 72.0 °F 74% 29.89 in 8.0 mi WSW 10.4 mph - N/A   Mostly Cloudy
1:09 PM 80.6 °F 84.6 °F 71.6 °F 74% 29.91 in 7.0 mi Variable 5.8 mph - N/A   Scattered Clouds
1:51 PM 82.0 °F 86.7 °F 72.0 °F 71% 29.89 in 7.0 mi SW 8.1 mph 18.4 mph N/A   Mostly Cloudy
2:51 PM 81.0 °F 86.2 °F 73.9 °F 79% 29.88 in 5.0 mi WSW 10.4 mph 16.1 mph 0.00 in Rain Light Rain
3:07 PM 80.6 °F 85.4 °F 73.4 °F 79% 29.90 in 9.0 mi Variable 5.8 mph - 0.00 in Thunderstorm Thunderstorm
3:18 PM 78.8 °F - 73.4 °F 83% 29.89 in 1.8 mi WNW 6.9 mph - 0.02 in Rain , Thunderstorm Heavy Thunderstorms and Rain
3:24 PM 78.8 °F - 73.4 °F 83% 29.89 in 3.0 mi West 3.5 mph - 0.04 in Rain Light Rain
3:41 PM 78.8 °F - 75.2 °F 89% 29.89 in 3.0 mi Variable 3.5 mph - 0.04 in Rain , Thunderstorm Light Rain
3:51 PM 78.1 °F - 73.9 °F 87% 29.86 in 3.0 mi WSW 5.8 mph - 0.04 in Rain Light Rain
4:08 PM 78.8 °F - 73.4 °F 83% 29.88 in 7.0 mi SW 8.1 mph - 0.00 in Rain , Thunderstorm Light Rain
4:30 PM 80.6 °F 85.4 °F 73.4 °F 79% 29.88 in 9.0 mi WSW 4.6 mph - 0.00 in   Partly Cloudy
4:51 PM 82.9 °F 89.4 °F 73.9 °F 74% 29.86 in 8.0 mi West 5.8 mph - 0.00 in   Scattered Clouds
5:11 PM 80.6 °F 85.4 °F 73.4 °F 79% 29.86 in 2.5 mi South 6.9 mph - 0.03 in Rain Light Rain
5:24 PM 80.6 °F 86.2 °F 75.2 °F 84% 29.87 in 7.0 mi SW 4.6 mph - 0.03 in   Mostly Cloudy
5:27 PM 78.8 °F - 75.2 °F 89% 29.86 in 6.0 mi SW 9.2 mph - 0.03 in Rain , Thunderstorm Light Rain
5:33 PM 75.2 °F - 71.6 °F 89% 29.85 in 2.5 mi SW 11.5 mph 17.3 mph 0.03 in Rain , Thunderstorm Light Rain
5:36 PM 75.2 °F - 71.6 °F 89% 29.87 in 1.8 mi West 13.8 mph 26.5 mph 0.05 in Rain , Thunderstorm Light Rain
5:38 PM 75.2 °F - 71.6 °F 89% 29.88 in 0.8 mi West 19.6 mph 33.4 mph 0.06 in Rain , Thunderstorm Heavy Thunderstorms and Rain
5:44 PM 71.6 °F - 69.8 °F 94% 29.87 in 0.5 mi NNW 10.4 mph 33.4 mph 0.26 in Fog , Rain , Thunderstorm Light Thunderstorms and Rain
5:51 PM 72.0 °F - 70.0 °F 93% 29.87 in 0.2 mi WNW 8.1 mph 23.0 mph 0.51 in Fog , Rain , Thunderstorm Heavy Thunderstorms and Rain
6:08 PM 71.6 °F - 69.8 °F 94% 29.90 in 0.8 mi WSW 10.4 mph 17.3 mph 0.32 in Rain , Thunderstorm Heavy Thunderstorms and Rain
6:13 PM 71.6 °F - 69.8 °F 94% 29.88 in 1.5 mi WSW 6.9 mph 27.6 mph 0.32 in Rain , Thunderstorm Light Thunderstorms and Rain
6:15 PM 71.6 °F - 69.8 °F 94% 29.87 in 3.0 mi West 8.1 mph 27.6 mph 0.32 in Rain , Thunderstorm Light Thunderstorms and Rain
6:25 PM 69.8 °F - 68.0 °F 94% 29.88 in 10.0 mi SW 8.1 mph - 0.32 in Thunderstorm Thunderstorm
6:51 PM 69.1 °F - 68.0 °F 96% 29.88 in 7.0 mi SSW 4.6 mph - 0.32 in Rain , Thunderstorm Light Thunderstorms and Rain
7:09 PM 69.8 °F - 68.0 °F 94% 29.88 in 5.0 mi Variable 3.5 mph - 0.02 in Rain Light Rain
7:51 PM 72.0 °F - 70.0 °F 93% 29.88 in 9.0 mi Calm Calm - 0.02 in   Partly Cloudy
8:51 PM 71.1 °F - 69.1 °F 93% 29.88 in 7.0 mi SW 5.8 mph - N/A   Partly Cloudy
9:51 PM 71.1 °F - 70.0 °F 96% 29.88 in 6.0 mi WSW 4.6 mph - N/A   Mostly Cloudy
10:51 PM 71.1 °F - 70.0 °F 96% 29.88 in 6.0 mi WSW 4.6 mph - N/A   Clear
11:20 PM 71.6 °F - 69.8 °F 94% 29.91 in 5.0 mi WNW 3.5 mph - N/A   Scattered Clouds
11:51 PM 71.1 °F - 70.0 °F 96% 29.89 in 5.0 mi WSW 3.5 mph - N/A   Scattered Clouds